Dryden, TX

5:24 PM CST on November 22, 2017 (GMT -0600)
Dryden

Weather History for K6R6 - May, 2013

Change the Weather History Date:

Wednesday, May 15, 2013

  Actual Average (KFST) Record (KFST)
Temperature  
Mean Temperature 76 °F -  
Max Temperature 97 °F 88 °F 106 °F (2003)
Min Temperature 57 °F 61 °F 48 °F (2014)
Cooling Degree Days 12    
Growing Degree Days 26 (Base 50)    
Moisture  
Dew Point 49 °F    
Average Humidity 49    
Maximum Humidity 90    
Minimum Humidity 12    
Precipitation  
Precipitation 0.00 in - - ()
Sea Level Pressure  
Sea Level Pressure 29.82 in    
Wind  
Wind Speed 6 mph (SW)    
Max Wind Speed 21 mph    
Max Gust Speed 30 mph    
Averages and records for this station are not official NWS values.
T = Trace of Precipitation, MM = Missing Value Source: NWS Daily Summary

Daily Weather History Graph

Daily Weather History Graph

Search for Another Location

Airport or City:

Trip Planner

Search our weather history database for the weather conditions in past years. The results will help you decide how hot, cold, wet, or windy it might be!

Date:

Astronomy

May. 15, 2013 Rise Set
Actual Time 6:55 AM CDT 8:35 PM CDT
Civil Twilight 6:28 AM CDT 9:01 PM CDT
Nautical Twilight 5:57 AM CDT 9:33 PM CDT
Astronomical Twilight 5:24 AM CDT 10:06 PM CDT
Moon 11:28 AM CDT (5/15) 12:26 AM CDT (5/15)
Length of Visible Light 14h 32m
Length of Day
13h 40m
Waxing Crescent, 27% of the Moon is Illuminated
May 15
Waxing Crescent
May 17
First Quarter
May 24
Full
May 31
Last Quarter
Jun 8
New

Hourly Weather History & Observations

Time (CDT) Temp. Heat Index Dew Point Humidity Pressure Visibility Wind Dir Wind Speed Gust Speed Precip Events Conditions
12:53 AM 62.1 °F - 59.0 °F 90% 29.96 in - Calm Calm - N/A   Unknown
1:53 AM 61.0 °F - 57.9 °F 90% 29.96 in - Calm Calm - N/A   Unknown
2:53 AM 60.1 °F - 57.0 °F 90% 29.93 in - Calm Calm - N/A   Unknown
3:53 AM 60.1 °F - 57.0 °F 90% 29.92 in - West 6.9 mph - N/A   Unknown
4:53 AM 57.0 °F - 54.0 °F 89% 29.90 in - Calm Calm - N/A   Unknown
5:53 AM 59.0 °F - 55.0 °F 87% 29.90 in - WNW 3.5 mph - N/A   Unknown
6:53 AM 59.0 °F - 55.0 °F 87% 29.91 in - Calm Calm - N/A   Unknown
7:53 AM 59.0 °F - 55.0 °F 87% 29.91 in - WNW 3.5 mph - N/A   Unknown
8:53 AM 66.0 °F - 57.9 °F 75% 29.92 in - Calm Calm - N/A   Unknown
9:53 AM 72.0 °F - 57.9 °F 61% 29.91 in - SW 8.1 mph - N/A   Unknown
10:53 AM 77.0 °F - 57.0 °F 50% 29.89 in - SW 18.4 mph 21.9 mph N/A   Unknown
11:53 AM 82.9 °F 81.9 °F 54.0 °F 37% 29.86 in - SW 17.3 mph 24.2 mph N/A   Unknown
12:53 PM 87.1 °F - 50.0 °F 28% 29.83 in - SW 20.7 mph - N/A   Unknown
1:53 PM 91.0 °F - 48.0 °F 23% 29.80 in - SSW 18.4 mph 25.3 mph N/A   Unknown
2:53 PM 93.9 °F - 43.0 °F 17% 29.78 in - WSW 16.1 mph 23.0 mph N/A   Unknown
3:53 PM 95.0 °F - 39.9 °F 15% 29.74 in - SW 18.4 mph 29.9 mph N/A   Unknown
4:53 PM 96.1 °F - 39.0 °F 14% 29.70 in - SW 17.3 mph 26.5 mph N/A   Unknown
5:53 PM 93.9 °F - 37.0 °F 14% 29.68 in - South 15.0 mph 24.2 mph N/A   Unknown
6:53 PM 95.0 °F - 34.0 °F 12% 29.67 in - SW 13.8 mph 23.0 mph N/A   Unknown
7:53 PM 93.0 °F - 35.1 °F 13% 29.67 in - SW 12.7 mph 21.9 mph N/A   Unknown
8:53 PM 89.1 °F - 37.0 °F 16% 29.67 in - SSW 8.1 mph - N/A   Unknown
9:53 PM 82.9 °F - 42.1 °F 24% 29.69 in - SW 3.5 mph - N/A   Unknown
10:53 PM 77.0 °F - 44.1 °F 31% 29.71 in - Calm Calm - N/A   Unknown
11:53 PM 73.9 °F - 48.0 °F 40% 29.70 in - Calm Calm - N/A   Unknown